Weather in Machkasy

Russia / Penza Oblast     52°46′08″N   45°34′33″E
temp.,
°C
wind,
m/s
gust,
m/s
humid.,
%
clouds,
%
prec.,
mm/h
press.,
hPa
HPBL,
m
28 february, sun
sun2800:00−14nnw5119299 0.0 1009516
03:00−16nw5119387 0.0 1011397
06:00−17nw4109529 0.0 1013287
09:00−16nnw599346 0.0 1013368
12:00−13nw578987 0.0 1014505
15:00−11nw578994 0.0 1015550
18:00−14nnw3694100 0.0 1016142
21:00−16nnw339696 0.0 101950
1 march, mon
mon100:00−17nnw339565 0.0 102035
03:00−18nnw239533 0.0 102236
06:00−19nnw23960 0.0 102321
09:00−16nw24940 0.0 1025156
12:00−11wnw348854 0.0 1025320
15:00−10w359159 0.0 1025328
18:00−14w349658 0.0 102461
21:00−14wsw369758 0.0 1023101
2 march, tue
tue200:00−9wsw51295100 0.1 1020309
03:00−5wsw71493100 0.1 1016543
06:00−4wsw81595100 0.6 1012576
09:00−2wsw81495100 1.8 1008734
12:00−1wsw81396100 1.5 1005793
15:000wnw61198100 2.4 1003676
18:00−1nw5119099 0.8 1004510
21:00−3wnw5129292 0.8 1005371
3 march, wed
wed300:00−5wnw5119694 0.1 1005272
03:00−4wnw6129596 0.3 1006441
06:00−5nw5119597 0.1 1006433
09:00−5nw6119396 0.2 1008584
12:00−3nw71090100 0.1 1009796
15:00−4nw71089100 0.3 1010860
18:00−5nw51294100 0.2 1012580
21:00−7nw6139296 0.3 1015559
4 march, thu
thu400:00−9nw4109595 0.1 1016282
03:00−12wnw469666 0.1 1017105
06:00−13w469657 0.0 1018107
09:00−8w5109555 0.0 1018294
12:00−4wsw7119195 0.0 1016609
15:00−2wsw8138796 0.0 1014771
18:00−3sw71689100 0.0 1012576
21:00−3wsw7178795 0.0 1011606